Content
SEND FEEDBACK

Daily
Averages
Monthly
Summary
Senegal

ST.-LOUIS, SENEGAL


Home > Africa > Senegal
Elevation: 13 feet     Latitude: 16 03N     Longitude: 016 27W

WEATHER
 
SELECT A DAY
Number of Records: 77,728;   Date Range: 10/19/97 - 9/30/14
 
SHARE

PRINT THIS DATA

[ ← Previous Day ]
WEATHER ALMANAC - JANUARY 3, 2013
[ Next Day → ]
[ °C ]   °F
Weather ElementAverageHighLow
Temperature71.5 °F87.8 °F (4:00 pm) (5:00 pm)
Dewpoint49.1 °F57.2 °F (12:00 am) (7:00 pm)
Humidity43.4 %73 % (12:00 am)28 % (3:00 am)
Barometer29.99 in30.06 in (11:00 pm)29.92 in (3:00 pm)
Wind Speed5.8 mph9.2 mph (11:00 am)
Weather ElementAverage
Visibility6 mi
Wind DirectionENE (71.7 °)

Weather ElementTotal
Precipitation---
Heating Degree Days21.1 (Base 65)
Averaged from 24 records on January 3, 2013
WEATHER CONDITIONS BREAKOUT
WIND DIRECTION BREAKOUT
WEATHER BY HOUR - JANUARY 3, 2013
[ °C ]   °F
Local TimeTemperatureDewpointHumidityBarometerVisibilityWind DirectionWind SpeedGust SpeedPrecipitationEventsConditions
12:00 AM66.2 °F57.2 °F73 %29.98 inNorth (360°)4.6 mphClear
3:00 AM68.0 °F33.8 °F28 %29.95 inNE (40°)6.9 mphClear
4:00 AM68.0 °F51.8 °F56 %29.95 inENE (60°)4.6 mphClear
5:00 AM64.4 °F48.2 °F56 %29.98 inENE (60°)6.9 mphClear
6:00 AM63.0 °F45.0 °F40 %30.00 in6.0 miENE (60°)6.9 mphClear
6:00 AM62.6 °F44.6 °F52 %29.98 inENE (60°)6.9 mphClear
8:00 AM60.8 °F44.6 °F55 %30.01 inENE (60°)4.6 mphClear
9:00 AM62.6 °F44.6 °F52 %30.04 inENE (60°)6.9 mphClear
10:00 AM71.6 °F48.2 °F43 %30.04 inEast (80°)6.9 mphClear
11:00 AM77.0 °F51.8 °F41 %30.04 inEast (80°)9.2 mphClear
12:00 PM80.0 °F53.0 °F29 %30.03 in6.0 miEast (80°)6.9 mphClear
12:00 PM80.6 °F53.6 °F39 %30.01 inEast (80°)6.9 mphClear
1:00 PM84.2 °F53.6 °F35 %29.98 inEast (80°)6.9 mphClear
2:00 PM86.0 °F55.4 °F35 %29.95 inEast (90°)6.9 mphClear
3:00 PM86.0 °F55.4 °F35 %29.92 inENE (60°)6.9 mphClear
4:00 PM87.8 °F57.2 °F35 %29.95 inENE (60°)4.6 mphClear
5:00 PM0.0 °F0.0 °F29.95 inENE (60°)4.6 mph
6:00 PM84.2 °F57.2 °F40 %29.95 inENE (60°)4.6 mphClear
6:00 PM84.0 °F56.0 °F28 %29.95 in6.0 miENE (60°)4.6 mphClear
7:00 PM80.6 °F55.4 °F42 %29.98 inNE (50°)4.6 mphClear
8:00 PM77.0 °F53.6 °F44 %29.98 inNNE (30°)4.6 mphClear
9:00 PM77.0 °F53.6 °F44 %30.01 inENE (60°)4.6 mphClear
10:00 PM73.4 °F51.8 °F47 %30.04 inNNE (20°)4.6 mphClear
11:00 PM71.6 °F51.8 °F50 %30.06 inNorth (10°)4.6 mphClear
Hourly data recorded from GOSS, located miles away from St.-Louis, Senegal







STORIES FROM OUR PARTNERS